Regional Weather Roundup
Issued by NWS Northern Indiana

Home | Current Version | Previous Version | Graphics & Text | Print | Product List | Glossary On
Versions: 1 2 3 4 5 6 7 8 9 10 11 12 13 14 15 16 17 18 19 20 21 22 23 24 25 26 27 28 29 30 31 32 33 34 35 36 37 38 39 40 41 42 43 44 45 46 47 48 49 50
000
ASUS43 KIWX 300810
RWRIWX

KIWX WEATHER ROUNDUP
NATIONAL WEATHER SERVICE NORTHERN INDIANA
400 AM EDT SAT JUL 30 2016

NOTE: "FAIR" INDICATES FEW OR NO CLOUDS BELOW 12,000 FEET WITH NO
SIGNIFICANT WEATHER AND/OR OBSTRUCTIONS TO VISIBILITY.

* THESE STATIONS ARE NOT UNDER NWS QUALITY CONTROL. THEY ALSO MAY NOT
  REPORT WEATHER SUCH AS PRECIPITATION OR FOG.

INZ001>027-300900-
NORTHERN INDIANA

CITY           SKY/WX    TMP DP  RH WIND       PRES   REMARKS
GARY*          CLEAR     69  69 100 CALM      29.92F
VALPARAISO     PTCLDY    65  64  97 E5        29.93S
MICHIGAN CITY* CLOUDY    66  66 100 MISG      29.94S
LAPORTE*       MOCLDY   N/A N/A N/A E3        29.94S HAZE
KNOX*          MOCLDY    64  63  94 E5        29.92F
SOUTH BEND     CLOUDY    67  65  93 E5        29.94S
GOSHEN         CLOUDY    69  65  86 N3        29.94S
MONTICELLO*    FOG       67  63  87 E3        29.91F VSB 1/2
LOGANSPORT*    FOG       66  66 100 CALM      29.93S VSB 3/4
ROCHESTER*     CLOUDY    70  70 100 CALM      29.93S FOG
WARSAW*        CLOUDY    68  68 100 CALM      29.93S FOG
ANGOLA*          N/A     66  55  68 NE3       29.94F
FORT WAYNE     CLOUDY    70  68  93 E6        29.93S
HUNTINGTON*    CLOUDY    69  67  96 CALM      29.93S FOG
PERU/GRISSOM   FOG       68  68 100 NE7       29.91S VSB 1/2
MARION*        FOG       66  66 100 NE5       29.93S VSB 1/2

$$
INZ028>050-300900-
CENTRAL INDIANA

CITY           SKY/WX    TMP DP  RH WIND       PRES   REMARKS
LAFAYETTE      PTCLDY    68  68 100 NE6       29.90S
KOKOMO*        CLOUDY    66  63  88 E5        29.92S VSB 1/4
MUNCIE*        FOG       69  66  90 CALM      29.92S VSB 3/4
INDIANAPOLIS   CLEAR     69  67  93 SW3       29.91S

$$
MIZ043>046-050>051-056>058-064>065-071>073-077>080-300900-
SOUTHWEST LOWER MICHIGAN

CITY           SKY/WX    TMP DP  RH WIND       PRES   REMARKS
BATTLE CREEK   MOCLDY    63  61  93 NE6       29.97F
BENTON HARBOR  CLOUDY    67  61  81 NE3       29.94R
COLDWATER*     CLOUDY    64  62  94 N6        29.96S
HILLSDALE*     CLOUDY    64  59  85 N5        29.96S
HOLLAND        CLOUDY    64  58  80 E8        29.98S
GRAND RAPIDS   LGT RAIN  61  59  93 NE14      29.99F FOG
KALAMAZOO      LGT RAIN  64  58  80 CALM      29.97S
STURGIS*       CLOUDY    66  65  97 NE8       29.94S FOG
THREE RIVERS*  CLOUDY    67  61  81 NE6       29.96S

$$
OHZ001>008-015>018-024>025-300900-
NORTHWEST OHIO

CITY           SKY/WX    TMP DP  RH WIND       PRES   REMARKS
DEFIANCE       PTCLDY    68  63  84 NE5       29.93F
FINDLAY        PTCLDY    72  67  84 NE5       29.92S HAZE
TOLEDO EXPRESS CLOUDY    68  62  81 NE5       29.92F
TOLEDO METCALF CLOUDY    73  70  90 NE6       29.93S
LIMA           MOCLDY    69  68  96 NE3       29.92S FOG

$$
AND FOR LAKE MICHIGAN COASTAL AND OPEN LAKE BUOY OBSERVATIONS

STATION/POSITION TEMP    WIND        PRES    VSBY  WAVE
                 AIR SEA DIR/SP/G                  HT/PER
                 (F)     (DEG/KT/KT) (MB)    (MI)  (FT/S)
CALUMET HARBOR    72      70/  5/  7 1012.8F
MICHIGAN CITY     68      90/  4/  5   N/A
BURNS HARBOR      69      80/  6/  8 1013.9S
SAINT JOSEPH      67      30/  3/  4 1014.6
SOUTH LAKE BUOY   68 74   60/ 19/ 23 1013.8S         3/ 5
4 MI NW BRIDGMAN  69 71   50/  6/  8 1013.4R         2
MICHIGAN CITY     71 76  110/  6/  8   N/A           2/ 5

$$
&&



USA.gov is the U.S. government's official web portal to all federal, state and local government web resources and services.